CZ-6A DEB

Satellite information

Favourite Embed

Satellite Type and Status

DEBRISIN ORBIT

Key statistics

Satellite CZ-6A DEB at a glance.

Uptime

1027

Days in orbit

Revolutions

≈ 14.5

Per day

Orbit

SSO

Sun Synchronous Orbit

Inclination

98.8

Latest

Satellite identification and parameters

Extended collection of information and parameters for CZ-6A DEB.

Object identification

Identified? True

Debris? True

Object name: CZ-6A DEB

International designator: 2022-151KT

Object number (NORAD): 54543

Object ID (CCSDS): 54543

Country: PEOPLES REPUBLIC OF CHINA (PRC)

Current information (Y/N): Y

RCS size: SMALL

Orbital parameters

Period: 99.334 minutes

Inclination: 98.7653 deg

SMA: 7104.915 km

Apoapsis: 809.507 km

Periapsis: 644.053 km

RAAN: 305.1823 deg

Eccentricy: 0.01164367

Argument of periapsis: 108.3139 deg

Mean anomaly: 253.0762 deg

Mean motion: 14.49654321 rev/day

Mean motion (dot): 0.00008994 rev/day2

B* drag term: 0.0021549518 1/REarth

Two-line elements (TLE)

Creation date: Sept. 3, 2025, 2:21 a.m.

Reference frame: TEME

Reference center: EARTH

Epoch: Sept. 2, 2025, 8:54 p.m. UTC

TLE line 0: 0 CZ-6A DEB

TLE line 1: 1 54543U 22151KT 25245.87113504 .00008994 00000-0 21550-2 0 9994

TLE line 2: 2 54543 98.7653 305.1823 0116437 108.3139 253.0762 14.49654321147859

Live tracking on map

Real-time ground track for satellite CZ-6A DEB.

In-orbit conjunctions

A list of the most updated potential collisions computed for object CZ-6A DEB.

Target Orbit TCA Probability of collision Miss distance Type
COSMOS 1275 DEB LEO 2024-11-12 19:57:37 0.0004589867 98.0 (m) DEBRIS
METEOR 2-8 DEB LEO 2024-07-17 13:38:16 0.0001848229 109.0 (m) DEBRIS

Associated space launch

Chinese satellite reported for atmospheric/ocean/environmental/spatial parameter research purposes, details TBD.

CZ-6A DEB was lifted into orbit during the mission ‘Long March 6A | Yunhai 3’, on board a Long March 6A space rocket.

The launch took place on Nov. 11, 2022, 10:52 p.m. from Launch Complex 9A.

For more information about the launch, click the button.

Launch to space Long March 6A | Yunhai 3
Long March 6A | Yunhai 3

Agency: N/A

Status: Launch Successful

Launch date: Nov. 11, 2022, 10:52 p.m. UTC

Rocket: Long March 6A

Launch pad: Launch Complex 9A

Location: Taiyuan Satellite Launch Center, People's Republic of China

...

Latest news about this satellite

There are no fresh news available about this satellite. Check back as we update our databases every day.


Newsletter sign-up

Weekly statistics, charts and insights to help you stay on top of the space industry.